Theta_e
314 314 314 314 314 314 314 314 315 315 316 317 317 318 318 318 317 309 302 309 312 322 325 312 306 306 306 307 310 308 296 296 301 301 303 309 304 311 312 308 309 311 316 325 328
313 313 313 313 313 313 313 314 314 315 316 316 317 317 317 318 309 305 313 324 324 325 307 302 302 304 299 302 306 302 295 298 306 307 306 309 309 311 310 310 309 309 314 317 324
313 313 313 313 313 313 313 313 314 315 315 316 316 317 317 317 304 307 323 326 326 324 308 305 304 301 295 299 301 302 298 304 306 308 310 309 310 313 310 306 311 309 311 313 314
313 313 314 313 313 313 313 313 314 315 315 315 315 316 318 311 294 306 326 328 327 317 309 305 300 293 292 293 299 295 301 305 307 309 309 307 311 309 310 310 315 316 317 314 313
313 313 313 312 313 312 312 313 313 314 314 315 315 316 310 304 305 312 329 328 321 313 308 303 297 292 289 293 296 294 298 301 302 304 307 311 309 309 309 314 317 317 317 316 314
312 312 312 312 311 312 312 313 313 313 314 315 317 317 308 299 311 315 319 314 311 306 304 301 296 298 293 291 291 294 296 296 298 299 300 300 301 307 310 315 315 315 315 315 316
312 311 312 311 311 311 312 313 313 313 314 316 318 315 304 299 310 308 311 305 306 307 303 303 302 299 296 293 295 295 291 294 296 298 297 301 298 299 305 309 310 313 314 315 316
311 311 312 311 311 311 311 312 312 313 314 316 318 310 299 314 311 304 304 302 305 306 306 305 303 297 294 295 295 291 288 284 292 296 298 298 292 301 304 304 305 309 313 314 315
312 312 311 311 311 311 311 311 313 314 315 316 309 304 302 314 305 304 301 301 304 304 303 307 301 295 295 289 285 286 282 284 289 295 294 293 291 297 301 301 301 304 308 313 315
312 311 311 311 312 311 312 312 312 313 313 314 311 301 305 302 304 304 304 304 303 301 301 299 293 290 288 286 280 284 284 286 286 292 293 291 291 295 298 299 298 298 301 306 312
312 311 311 312 311 311 306 303 298 299 304 302 305 304 307 305 307 303 306 304 303 298 290 293 288 285 288 289 291 290 288 287 290 294 291 290 291 294 296 296 296 298 299 300 303
311 311 311 312 311 311 302 300 301 301 294 303 304 305 308 304 298 302 305 298 295 289 292 289 285 292 294 294 292 290 287 286 290 294 291 290 291 294 295 295 295 296 298 299 302
310 310 311 311 310 305 300 305 307 303 292 299 303 301 301 301 298 298 302 298 294 290 289 285 290 295 294 291 290 289 287 288 289 293 292 290 288 291 295 296 297 297 298 299 299
309 310 310 310 304 303 303 307 305 303 288 296 295 298 299 298 295 303 303 298 293 289 290 288 293 292 291 290 292 286 294 293 291 288 281 289 280 287 290 292 294 296 296 297 299
309 310 310 309 299 300 307 305 305 302 277 296 296 302 299 295 298 300 303 298 291 291 289 287 289 288 288 292 294 290 294 291 290 287 283 285 280 285 289 289 292 294 295 297 298
309 310 310 305 301 305 308 304 303 289 280 292 297 295 293 295 296 299 298 299 297 291 290 290 293 294 294 296 294 295 291 289 287 283 277 282 281 283 285 289 290 295 298 301 303
308 309 306 307 300 306 303 301 287 282 295 291 291 294 292 292 294 295 293 290 286 283 283 288 289 295 297 290 292 289 284 277 276 276 276 285 282 284 290 293 296 298 299 301 302
307 307 306 306 305 306 300 293 284 290 290 296 294 294 290 293 293 294 291 287 292 289 282 280 279 289 295 290 286 285 284 277 275 275 277 286 279 284 294 298 299 300 300 301 301
305 302 305 307 309 301 295 284 286 290 294 292 293 289 289 292 291 290 289 289 292 290 283 282 283 292 293 293 290 285 281 286 281 282 278 280 284 290 295 296 298 298 299 298 300
297 300 303 306 303 300 291 290 290 295 295 295 287 291 286 288 288 287 288 294 293 294 290 287 281 290 292 293 292 288 290 279 279 274 274 279 281 282 290 293 295 295 296 297 300
299 298 305 305 303 296 286 288 293 298 298 293 290 289 289 287 287 287 288 292 296 294 292 287 284 285 289 286 284 285 283 284 282 280 273 276 278 291 292 293 293 295 298 299 301
295 292 305 303 293 291 288 293 298 297 298 296 295 292 290 290 287 288 288 292 297 295 289 290 285 280 284 291 292 290 286 287 276 276 281 281 280 293 293 294 296 297 298 299 301
292 295 304 303 286 286 292 294 297 296 294 293 292 294 293 288 285 290 291 297 297 295 290 290 282 278 280 284 288 286 288 287 286 284 280 278 279 295 295 295 297 296 299 300 302
294 289 293 294 292 288 288 291 292 299 296 296 293 293 290 287 289 289 290 295 296 294 301 296 285 282 277 282 284 284 288 289 286 282 281 282 284 289 293 295 296 300 301 301 303
291 288 290 284 287 288 289 292 291 291 295 293 290 291 288 284 286 286 289 291 294 297 294 290 282 286 287 289 289 288 288 289 286 286 282 285 286 290 293 294 297 300 302 302 304
288 288 289 287 290 290 291 288 290 291 290 289 288 291 289 284 286 285 288 287 287 291 289 289 283 286 285 289 289 287 288 290 289 289 288 287 286 293 295 296 297 299 302 303 304
294 293 290 288 288 285 285 288 290 291 292 293 290 288 287 289 292 292 292 291 291 289 287 286 284 284 281 287 287 282 288 290 290 291 288 285 287 292 292 295 296 297 299 300 303
Wind_Speed
17 17 17 17 17 17 17 17 17 16 16 16 16 15 16 16 16 5 7 10 8 5 4 6 4 5 2 4 3 0 2 5 7 7 6 13 4 9 7 6 4 6 5 7 5
17 18 18 18 18 17 17 17 17 16 16 16 16 16 16 14 5 7 12 9 8 4 2 4 3 3 3 6 5 6 6 9 5 5 8 14 13 12 14 18 6 5 14 14 9
19 19 19 19 19 19 18 18 18 17 17 16 16 15 15 10 4 5 10 12 9 6 4 2 4 2 4 4 5 5 6 6 8 9 10 17 21 12 11 12 14 2 3 7 7
20 20 21 21 21 21 20 19 19 18 17 16 15 15 16 2 2 4 11 12 8 5 3 3 3 2 3 5 4 6 7 9 12 14 13 16 16 17 12 13 17 13 3 1 6
21 21 21 22 22 22 21 20 19 18 17 16 14 12 5 1 8 6 12 9 4 3 4 3 2 3 3 3 5 6 9 9 10 13 12 16 21 22 24 14 14 21 9 2 5
21 21 22 23 23 22 21 19 18 17 16 15 12 8 1 3 4 8 10 3 7 4 4 4 0 5 2 1 1 4 5 8 6 8 5 8 14 13 23 14 15 15 20 4 5
22 22 21 23 24 23 22 19 17 17 16 13 8 3 2 12 2 4 8 6 5 7 1 3 3 5 3 7 3 5 6 7 4 1 4 6 14 19 10 8 13 16 18 14 7
20 21 22 24 24 23 23 21 19 17 14 11 4 1 7 6 5 5 8 4 3 5 5 6 3 2 2 3 9 6 4 4 4 8 5 5 22 16 8 11 17 13 14 22 11
22 21 23 24 24 23 22 21 21 17 12 9 2 2 9 10 2 1 1 2 5 4 4 7 7 5 2 2 5 3 4 4 7 7 6 4 17 7 7 7 9 11 13 14 21
23 23 23 24 23 21 20 21 12 7 4 5 5 2 6 2 3 3 2 4 2 5 6 2 4 2 2 4 4 6 5 2 2 5 2 9 16 9 6 8 7 8 8 12 14
24 24 23 22 22 17 11 5 6 3 2 6 4 4 10 1 1 2 2 0 2 4 2 2 4 6 10 9 10 6 5 4 3 6 4 10 15 14 7 7 8 9 13 13 14
26 25 25 24 21 18 1 2 3 4 7 8 12 14 17 4 1 7 6 2 4 4 6 7 3 5 6 5 3 6 6 6 6 6 6 7 22 17 7 6 7 9 12 12 15
24 24 25 25 24 2 2 7 6 6 2 8 5 5 6 6 4 7 4 3 0 3 3 3 8 6 6 3 6 5 5 8 9 12 7 5 19 16 15 8 7 8 10 14 11
25 24 22 25 3 4 4 8 3 5 4 4 4 3 3 4 4 8 6 5 0 4 5 5 5 3 6 3 4 3 6 8 10 8 4 4 18 12 10 13 12 13 13 13 16
25 24 21 11 2 3 6 8 3 6 5 6 3 3 3 4 2 2 6 3 6 7 1 9 4 7 3 3 2 6 6 4 8 11 3 5 5 9 8 17 17 17 12 12 11
26 23 17 4 1 7 8 8 5 5 4 2 3 3 2 4 6 4 6 3 4 5 4 10 3 3 5 3 2 1 3 6 5 2 4 5 6 17 5 12 7 9 14 14 16
28 25 9 1 4 5 6 5 6 5 8 8 6 7 6 4 5 7 5 3 5 1 3 4 1 2 2 3 6 6 5 5 6 3 6 5 8 14 9 9 3 6 11 15 13
30 22 4 4 5 6 4 6 8 5 7 6 10 12 3 6 4 4 4 4 10 4 1 2 6 5 2 1 5 4 6 5 4 4 7 12 8 8 2 5 2 5 7 11 13
22 4 4 5 5 3 6 6 2 5 6 6 8 5 6 13 8 8 7 4 3 5 2 3 4 9 6 4 3 3 5 6 4 6 7 6 8 7 3 6 6 9 10 11 13
3 4 4 3 3 6 6 1 2 2 1 4 4 4 5 6 5 6 5 3 2 3 1 3 6 4 3 6 3 2 3 4 3 4 5 4 7 9 6 9 12 17 15 16 16
3 4 5 3 5 6 3 4 2 5 5 2 3 3 5 4 3 4 4 8 4 4 5 3 2 6 5 3 4 5 1 3 2 5 4 4 7 5 6 4 11 15 14 17 17
3 3 4 5 6 1 2 6 6 10 4 2 2 2 1 3 4 3 3 2 4 3 2 1 2 4 9 15 9 6 6 4 4 4 4 4 12 5 4 6 6 11 12 16 18
2 4 4 6 3 3 6 6 2 7 3 4 3 4 3 3 3 3 3 4 3 2 2 2 1 5 8 5 5 3 3 6 3 2 8 5 9 2 5 6 7 8 13 16 19
2 5 6 5 0 2 5 5 5 7 5 5 3 4 3 3 3 4 3 4 4 2 6 7 5 8 7 8 5 14 17 14 9 5 9 13 16 6 10 12 7 8 8 14 16
4 2 0 5 5 6 2 5 9 5 4 2 3 2 2 3 4 5 3 6 7 8 5 7 6 7 12 16 16 20 21 18 17 17 9 14 7 10 9 11 10 7 5 11 16
3 3 5 4 6 5 4 3 4 7 5 6 4 6 2 4 8 12 7 3 7 6 5 2 5 2 15 14 17 19 17 15 17 16 5 7 11 5 8 11 12 10 8 13 15
4 3 4 5 5 3 1 5 8 9 5 5 4 5 5 6 7 8 8 8 10 9 5 5 4 4 17 5 12 11 5 1 2 6 5 8 5 5 7 13 11 15 13 14 16
Wind_Direction
341 339 337 335 334 331 329 327 325 323 321 320 320 324 321 319 317 298 235 220 185 238 315 282 277 255 300 264 222 177 98 230 231 233 275 299 324 306 287 308 336 318 2 338 141
341 338 336 334 332 330 327 324 321 319 317 321 325 324 318 323 299 246 244 206 205 226 264 250 261 11 230 215 216 175 182 219 234 277 289 290 305 328 339 322 315 54 348 1 16
342 339 336 333 331 329 326 323 321 321 321 323 322 317 314 323 299 255 203 210 209 192 236 275 274 228 221 234 230 218 235 257 269 283 286 285 292 305 299 300 299 316 333 354 354
343 339 336 334 331 328 325 322 320 319 319 319 318 314 312 174 114 244 195 207 217 202 232 227 222 192 215 226 230 258 255 242 252 255 261 270 285 289 273 259 289 296 222 159 330
340 338 335 333 330 326 322 318 316 315 314 316 314 312 341 269 251 229 205 214 216 194 212 210 226 201 209 237 310 250 278 269 258 261 257 263 269 273 278 276 281 295 294 216 314
338 336 335 332 327 322 318 313 310 310 311 313 311 312 211 282 227 194 199 193 225 191 256 182 121 248 198 282 159 293 288 276 275 281 290 268 272 279 275 279 274 283 293 282 233
337 334 329 329 327 321 317 310 306 305 305 308 305 256 269 239 207 219 167 220 207 209 251 263 137 62 6 335 331 298 310 319 297 261 265 280 275 256 283 312 280 267 271 269 229
335 329 326 328 325 321 316 309 302 296 294 298 286 259 252 251 265 238 192 313 344 208 185 232 209 103 132 306 342 340 347 323 339 359 275 155 269 275 264 270 279 285 268 275 251
333 329 329 328 327 324 315 301 293 290 276 260 239 171 275 311 189 232 87 267 333 317 273 269 122 173 350 103 2 303 250 264 314 250 253 202 275 316 329 295 289 285 276 259 268
334 330 330 331 329 328 313 297 282 310 208 196 250 285 279 228 171 257 252 266 294 305 334 244 80 115 17 88 233 242 260 274 264 336 2 295 287 288 304 311 309 318 324 308 281
334 329 328 330 331 331 339 0 12 8 103 203 206 249 292 95 199 253 195 248 326 50 295 294 105 223 241 213 237 258 246 280 252 263 291 283 279 284 292 315 315 304 304 299 295
331 331 330 330 327 323 184 3 245 219 311 250 239 253 258 249 258 301 155 109 27 309 336 10 294 275 257 288 320 324 313 301 269 282 294 288 287 289 284 270 280 286 296 298 296
329 330 331 326 322 53 198 248 304 83 14 297 213 210 221 138 218 258 137 107 103 337 340 179 257 302 328 348 7 1 354 342 320 323 313 295 287 297 296 282 278 283 279 290 286
329 330 331 326 17 336 277 302 295 94 58 270 176 239 155 157 260 233 179 139 111 246 270 257 260 330 308 344 42 334 340 326 323 332 274 272 281 280 301 303 300 293 286 282 289
329 330 331 311 254 335 268 322 323 58 60 188 164 238 181 176 281 176 154 107 191 226 147 255 268 295 291 166 130 228 318 291 283 275 281 256 259 277 310 293 292 293 294 299 296
329 328 333 77 228 242 306 300 58 40 61 103 87 337 18 240 258 153 184 198 207 212 217 240 254 134 186 248 219 325 335 319 300 183 229 197 208 276 249 260 289 316 331 353 342
329 324 314 232 248 317 325 38 47 65 341 4 2 336 317 280 301 163 199 228 224 30 299 329 352 173 110 336 345 59 44 344 333 351 236 240 268 264 295 324 51 333 324 328 329
327 318 218 219 252 333 46 53 65 18 24 18 337 313 338 12 12 358 355 305 16 82 100 187 336 23 63 238 239 233 173 164 259 291 304 304 257 257 92 87 286 287 276 303 316
324 330 311 271 237 80 67 51 26 5 31 345 335 20 358 3 7 15 11 42 34 48 64 9 259 320 294 3 81 263 221 217 241 269 264 241 283 293 318 308 294 284 308 313 315
329 337 280 224 104 61 68 286 122 19 15 29 43 21 335 337 20 29 321 81 49 85 107 351 294 245 309 324 298 53 288 15 13 289 275 272 282 261 296 295 328 319 329 315 315
25 20 265 59 58 46 111 245 333 347 107 149 237 259 286 303 351 342 275 315 75 6 80 78 140 284 354 260 284 349 341 64 125 164 214 300 248 225 270 311 295 308 319 320 317
5 34 296 55 40 27 346 308 307 310 89 54 2 282 334 324 301 260 252 321 60 66 36 156 194 276 260 293 263 169 199 170 131 261 243 255 274 312 184 256 295 313 318 323 312
7 270 330 80 61 330 304 298 262 330 246 183 200 236 246 253 313 264 294 282 98 52 217 179 307 317 332 356 357 211 221 212 219 138 223 239 264 2 268 268 233 275 340 330 321
36 3 330 35 315 73 353 289 320 303 351 37 354 344 351 296 231 267 256 279 287 247 232 157 195 190 216 248 238 282 277 274 242 232 249 241 278 288 303 289 254 265 310 341 313
33 323 256 310 323 326 235 271 299 322 11 70 307 10 76 315 310 263 304 317 310 278 216 155 227 219 245 259 272 273 278 271 258 253 238 275 233 254 260 267 277 256 296 316 308
66 30 349 281 289 312 310 339 315 347 317 313 313 283 207 211 217 274 256 222 229 293 199 204 257 254 285 270 262 282 281 267 259 264 279 269 274 226 280 298 306 290 301 303 296
322 334 103 276 326 352 227 342 308 318 286 56 324 321 309 303 292 262 220 218 230 214 221 188 211 271 269 331 306 283 261 140 330 291 265 266 243 268 277 289 305 303 295 295 294